Home   Weather   Legnica   Past weeks

Flag for Poland Past Weather in Legnica, Poland — Yesterday and Last 2 Weeks

Now
69 °F

Passing clouds.


Feels Like: 69 °F
Forecast: 62 / 84 °F
Wind: 5 mph from South

Location: Wroclaw Ii

Current Time: May 28, 2017 at 10:28:38 am

Latest Report: May 28, 2017 at 9:00 am


Visibility: 25 mi

Pressure: 30.24 "Hg

Humidity: 53%

Dew Point: 51 °F

Location of LegnicaLocation

Past Weather in Legnica — Graph

°F

Legnica Temperature Yesterday

Maximum temperature yesterday: 74 °F (at 6:00 pm)
Minimum temperature yesterday: 51 °F (at 4:00 am)
Average temperature yesterday: 64 °F

High & Low Weather Summary for the Past Weeks

 TemperatureHumidityPressure
High81 °F (May 19, 3:00 pm)97% (May 15, 3:00 am)30.43 "Hg (May 15, 3:00 am)
Low47 °F (May 28, 4:00 am)32% (May 17, 5:00 pm)29.79 "Hg (May 19, 7:00 pm)
Average62 °F66%30.12 "Hg
* Reported May 13 9:00 am — May 28 9:00 am, Legnica. Weather by CustomWeather, © 2017

Note: Actual official high and low records may vary slightly from our data, if they occured in-between our weather recording intervals... More about our weather records

Advertising

Legnica Weather History for the Previous 24 Hours

Scroll right to see more
 ConditionsComfort  
Time TempWeatherWind HumidityBarometerVisibility
9:00 am
Sun, May 28
69 °FPassing clouds.5 mph53%30.24 "Hg25 mi
8:00 am64 °FPassing clouds.3 mph66%30.24 "Hg25 mi
7:00 am57 °FSunny.3 mph79%30.24 "Hg25 mi
6:00 am52 °FPassing clouds.2 mph87%30.24 "Hg25 mi
5:00 am51 °FFog.1 mph89%30.25 "Hg25 mi
4:00 am47 °FClear.2 mph91%30.25 "Hg25 mi
2:00 am52 °FClear.No wind83%30.25 "Hg31 mi
12:00 am53 °FClear.1 mph81%30.25 "Hg31 mi
11:00 pm
Sat, May 27
60 °FClear.1 mph63%30.24 "Hg31 mi
10:00 pm63 °FClear.1 mph55%30.23 "Hg31 mi
9:00 pm67 °FClear.2 mph49%30.22 "Hg31 mi
7:00 pm73 °FSunny.2 mph35%30.20 "Hg31 mi
6:00 pm74 °FSunny.3 mph33%30.20 "Hg31 mi
5:00 pm74 °FPassing clouds.3 mph35%30.21 "Hg31 mi
4:00 pm73 °FPassing clouds.28 mph37%30.22 "Hg34 mi
3:00 pm72 °FPassing clouds.2 mph40%30.23 "Hg31 mi
2:00 pm71 °FPassing clouds.2 mph39%30.24 "Hg31 mi
1:00 pm70 °FPassing clouds.2 mph43%30.24 "Hg31 mi
12:00 pm69 °FPassing clouds.3 mph48%30.25 "Hg31 mi
11:00 am67 °FPassing clouds.25 mph48%30.25 "Hg14 mi
10:00 am65 °FPassing clouds.2 mph52%30.25 "Hg31 mi
Weather by CustomWeather, © 2017

See weather overviewHow to use our weather pages